sat.trackr.live / text

‹ back to catalog

STARLINK-11169 [DTC]

NORAD 60064 · 2024-113F

PAYLOAD ACTIVE UNKNOWN

§ Identity

Operator
Country
US
Launch date
2024-06-19
Launch site
AFWTR
Launch vehicle
Mass (kg)
RCS (m²)

Purposes: comms

External: N2YO · Heavens-Above · Gunter

§ Orbital elements

Epoch: 2026-05-25T02:17:09.118752Z

Period
91.74 min
Inclination
53.1594°
Eccentricity
0.0001027
Mean motion
15.69708972 rev/d
Perigee alt
359.0 km
Apogee alt
360.4 km
Semi-major
6,737.9 km
B*
1.7590e-5
RAAN
174.4070°
Arg perigee
94.2756°
Mean anomaly
265.8380°
Rev number
11,156

§ Raw data

STARLINK-11169 [DTC]1 60064U 24113F   26145.09524443  .00001543  00000+0  17590-4 0  99942 60064  53.1594 174.4070 0001027  94.2756 265.8380 15.69708972111561

JSON: /api/v1/satellites/60064 · /tle

For live sub-satellite position, see the globe view (requires WebGL).

§ Visibility from observer

Set your observer location to see the next 7 days of passes ≥ 10°. The values pass through the URL so the page stays shareable.

No JS? Fill the form by hand. The geolocation button needs JavaScript.